Terug naar catalogus

KUIPER-00250

ActiefCommunicatieLEO
NORAD 67155·PAYLOAD·🇺🇸 United States

Gelanceerd Dec 15, 2025 vanaf Cape Canaveral Space Force Station

Loading…

Volgende Passages (komende 24 uur)

TLE

VersSource: CelesTrak SupGP

Epoch: Sep 14, 2026, 20:29 UTC

1 67155C 25301Y   26257.85365741  .00000658  00000+0  86181-4 0  2579
2 67155  51.8989 314.1075 0000667  61.2214  20.0036 14.79930197    14

Volg KUIPER-00250 in realtime met AllMySat

Download on the App Store